[Iaude] MPEC C29: 2024 BZ5 [a=1.95,e=0.46,i=6.6,H=22.7]

mpec at marsden.cfa.harvard.edu mpec at marsden.cfa.harvard.edu
Fri Feb 2 13:34:42 EST 2024


M.P.E.C. 2024-C29                              Issued 2024 February 2, 18:33 UT

     The Minor Planet Electronic Circulars contain information on unusual
         minor planets, routine data on comets and natural satellites,
         and occasional editorial announcements.  They are published
    on behalf of Division F of the International Astronomical Union by the
          Minor Planet Center, Smithsonian Astrophysical Observatory,
                          Cambridge, MA 02138, U.S.A.
			  
             Prepared using the Tamkin Foundation Computer Network

                              MPC at CFA.HARVARD.EDU
            URL https://www.minorplanetcenter.net/    ISSN 1523-6714

                                    2024 BZ5                                    


Observations:
     K24B05Z*1C2024 01 30.26043808 12 28.166+26 21 30.38         20.68GVEC029G96
     K24B05Z 1C2024 01 30.26621508 12 27.558+26 21 26.86         21.03GVEC029G96
     K24B05Z 1C2024 01 30.27198508 12 26.885+26 21 23.11         20.80GVEC029G96
     K24B05Z 1C2024 01 30.27776808 12 26.212+26 21 19.66         21.78GVEC029G96
     K24B05Z 1C2024 01 30.35964108 12 17.212+26 20 26.88         21.28GVEC029G96
     K24B05Z 1C2024 01 30.36242708 12 16.902+26 20 24.83               VEC029G96
     K24B05Z 1C2024 01 30.36519308 12 16.654+26 20 22.70         20.79GVEC029G96
     K24B05Z KC2024 02 01.36847 08 08 52.83 +25 57 42.6          21.6 RVEC029691
     K24B05Z KC2024 02 01.37951 08 08 51.57 +25 57 34.2          21.4 RVEC029691
     K24B05Z KC2024 02 01.39055 08 08 50.37 +25 57 25.7          22.0 RVEC029691
     K24B05Z  C2024 02 01.47822708 08 41.639+25 56 29.09         21.67wXEC029F52
     K24B05Z  C2024 02 01.49117608 08 40.152+25 56 19.28         21.56wXEC029F52
     K24B05Z  C2024 02 01.50413208 08 38.690+25 56 09.43         21.62wXEC029F52
     K24B05Z KC2024 02 02.14849708 07 33.68 +25 48 04.9          21.2 GVEC029H21
     K24B05Z KC2024 02 02.15688408 07 32.74 +25 47 58.0          21.0 GVEC029H21

Observer details:
691 Steward Observatory, Kitt Peak-Spacewatch.  Observer J. V. Scotti.  0.9-m
    f/3 reflector + CCD.
F52 Pan-STARRS 2, Haleakala.  Observers J. Herman, T. Lowe, P. Minguez, A.
    Schultz, I. Smith.  Measurers K. Chambers, T. de Boer, J. Fairlamb, H.
    Gao, M. Huber, C.-C. Lin, E. Magnier, Y. Ramanjooloo, R. Wainscoat, R.
    Weryk.  1.8-m Ritchey-Chretien + CCD.
G96 Mt. Lemmon Survey.  Observer D. Rankin.  Measurers T. Beuden, V. F.
    Carvajal, D. Fay, J. B. Fazekas, D. C. Fuls, A. R. Gibbs, A. D. Grauer, H.
    Groeller, J. K. Hogan, R. A. Kowalski, S. M. Larson, G. J. Leonard, D.
    Rankin, R. L. Seaman, F. C. Shelly, K. W. Wierzchos.  1.5-m reflector +
    10K CCD.
H21 Astronomical Research Observatory, Westfield.  Observer R. Holmes.
    Measurers T. Linder, R. Holmes, L. Horn.  0.76-m f/3.0 astrograph + CCD.

Orbital elements:
2024 BZ5                                                 Earth MOID = 0.1035 AU
Epoch 2023 Sept. 13.0 TT = JDT 2460200.5                Bell                    
M 284.06701              (2000.0)            P               Q                  
n   0.36149514     Peri.  233.01345     -0.96864623     +0.23740285             
a   1.9516461      Node   320.56954     -0.17505791     -0.86137989             
e   0.4575368      Incl.    6.62184     -0.17629294     -0.44907078             
P   2.73           H   22.79          G   0.15           U   9                  
Residuals in seconds of arc
240130 G96  0.0   0.3-    240130 G96  0.0   0.2-    240201 F52  0.2+  0.0
240130 G96  0.4+  0.2-    240130 G96  0.7+  0.4-    240201 F52  0.1+  0.0
240130 G96  0.1-  0.3-    240201 691  0.7-  0.1-    240201 F52  0.2+  0.1+
240130 G96  0.6-  0.2-    240201 691  0.9-  0.1-    240202 H21  0.1-  0.4+
240130 G96  0.0   0.0     240201 691  0.4-  0.2-    240202 H21  0.1+  0.4-

Ephemeris:
2024 BZ5                 a,e,i = 1.95, 0.46, 7                   q = 1.0587
Date    TT    R. A. (2000) Decl.     Delta      r    Elong.  Phase     V
2024 01 03    08 40 27.1 +28 19 42   0.5223  1.4728   154.8    16.5    23.1
...
2024 01 18    08 29 55.6 +27 48 04   0.4003  1.3794   169.6     7.4    22.0
...
2024 01 26    08 19 15.7 +27 00 50   0.3494  1.3311   171.6     6.2    21.6
...
2024 02 01    08 09 31.7 +26 02 10   0.3175  1.2960   166.4    10.3    21.5
2024 02 02    08 07 48.5 +25 50 04   0.3127  1.2902   165.3    11.2    21.5
2024 02 03    08 06 04.2 +25 37 15   0.3080  1.2845   164.1    12.1    21.5
...
2024 02 09    07 55 29.0 +24 04 35   0.2827  1.2511   156.6    18.2    21.5
...
2024 02 17    07 42 15.0 +21 16 44   0.2558  1.2090   146.2    27.0    21.5
...
2024 03 03    07 26 28.6 +13 49 58   0.2198  1.1404   128.2    43.1    21.5

M. P. C. Staff               (C) Copyright 2024 MPC           M.P.E.C. 2024-C29





More information about the Iaude mailing list